Regional Weather Roundup
Issued by NWS Green Bay, WI

Home | Current Version | Previous Version | Text Only | Print | Product List | Glossary On
Versions: 1 2 3 4 5 6 7 8 9 10 11 12 13 14 15 16 17 18 19 20 21 22 23 24 25 26 27 28 29 30 31 32 33 34 35 36 37 38 39 40 41 42 43 44 45 46 47 48 49 50
000
ASUS43 KGRB 201610
RWRGRB

NORTH-CENTRAL AND NORTHEAST WISCONSIN REGIONAL WEATHER ROUNDUP
NATIONAL WEATHER SERVICE GREEN BAY WI
1100 AM CDT MON OCT 20 2014

WIZ005-009-010>012-018-019-201700-
NORTH CENTRAL WISCONSIN

CITY           SKY/WX    TMP DP  RH WIND       PRES   REMARKS
IRONWOOD       CLOUDY    48  45  87 N12       29.90S
MANITOWISH WTR CLOUDY    47  43  85 N8        29.90S
ARBOR VITAE    CLOUDY    48  45  91 N14       29.90S
EAGLE RIVER    DRIZZLE   46  45  97 N7        29.89R
LAND O LAKES   LGT RAIN  45  43  93 NW10      29.90R
RHINELANDER    CLOUDY    46  43  89 N6        29.90R
PHILLIPS       CLOUDY    47  42  82 NW6       29.92R
ANTIGO         CLOUDY    45  44  95 N6        29.90R FOG
TOMAHAWK       CLOUDY    48  42  77 NW10G20   29.91S
MERRILL        CLOUDY    49  43  79 N8        29.90S
$$

WIZ013-073-201700-
NORTHEAST WISCONSIN

CITY           SKY/WX    TMP DP  RH WIND       PRES   REMARKS
IRON MOUNTAIN  CLOUDY    47  41  80 NW9       29.86R
MARINETTE      CLOUDY    48  43  81 N10G17    29.84S
OCONTO         CLOUDY    51  45  81 N9        29.86R
$$

WIZ017-030-035>037-045-201700-
CENTRAL WISCONSIN

CITY           SKY/WX    TMP DP  RH WIND       PRES   REMARKS
MEDFORD        PTSUNNY   49  43  78 N8        29.92S
WAUSAU         CLOUDY    50  43  77 NW6       29.89R
MOSINEE        NOT AVBL
MARSHFIELD     MOSUNNY   54  44  69 N13       29.91S
WISC RAPIDS    CLOUDY    53  43  68 N8        29.93R
STEVENS POINT  CLOUDY    48  40  73 NW6       29.91R
WAUPACA        CLOUDY    53  45  75 NW9G16    29.90R
SHAWANO        CLOUDY    52  45  77 NW6       29.88R
CLINTONVILLE   CLOUDY    50  43  76 NW9       29.88R
$$

WIZ038-039-048-051-201700-
FOX VALLEY

CITY           SKY/WX    TMP DP  RH WIND       PRES   REMARKS
NWS GREEN BAY  CLOUDY    52  45  77 N9        29.86S
APPLETON       CLOUDY    52  45  76 N13       29.88R
OSHKOSH        PTSUNNY   53  45  74 N12       29.87R
FOND DU LAC    MOSUNNY   55  45  68 N13       29.87S
$$

WIZ022-050-052-201700-
EAST CENTRAL WISCONSIN

CITY           SKY/WX    TMP DP  RH WIND       PRES   REMARKS
STURGEON BAY   CLOUDY    50  43  76 N9        29.86R
MANITOWOC      CLOUDY    53  47  79 N12       29.85R
SHEBOYGAN      CLOUDY    53  45  74 NW7       29.85S
$$

LMZ563-521-522-541>543-201700-
LAKESHORE

STATION/POSITION TIME  TEMP    WIND        PRES    VSBY  WAVE
                       AIR SEA DIR/SP/G                  HT/PER
                 (UTC) (F)     (DEG/KT/KT) (MB)    (MI)  (FT/S)
SHEBOYGAN LKSHOR 1600   51 50  350/ 11/ 12 1011.1R
KEWAUNEE LKSHORE 1600   52     340/  7/ 11 1009.9R
TWO RIVERS CG    1500   50                 1010.0      6   1
NORTHPORT PIER   1600   49     330/ 16/ 19 1010.5R
N MID LAKE BUOY  1600   48 52  330/ 17/ 19 1009.9R         3/ 4
STURGEON BAY CG  1500   50 48   10/  6     1010.7      6   1
CHAMBERS ISLAND  1600   50     310/ 15/ 22 1010.5F
MENOMINEE LKSHOR 1600   50     320/ 16/ 19 1011.1F
$$


USA.gov is the U.S. government's official web portal to all federal, state and local government web resources and services.